User: anonymous   Login
Location: Caltech
(34.1382°N, 118.1253°W)
Time: 19:38:34
(UTC-08:00)
Language:

Cosmos 1484 Rocket - Orbit

View from above orbital plane
View from above orbital plane
View from above satellite
View from above satellite

Ground track
Ground track

The orbit data is extracted from the following two-line orbital elements,

1 14208U 83075B   16042.69665819  .00001679  00000-0  10611-3 0  9996
2 14208  97.3648  67.0651 0040926  28.0647 332.2777 15.09681842773335
Epoch (UTC): 11 February 2016 16:43:11
Eccentricity: 0.0040926
inclination: 97.3648°
perigee height: 509 km
apogee height: 565 km
right ascension of ascending node: 67.0651°
argument of perigee: 28.0647°
revolutions per day: 15.09681842
mean anomaly at epoch: 332.2777°
orbit number at epoch: 77333

The dashed part of the orbit path shows where the satellite is in the earth's shadow,  

DLR